SCP
0 0 1 1 1 1 1 1 1 1 1 1 1 1 0 0 0 0 0 0 0 0 0 0 0 0 0 0 0 0 0 0 0 0 0 0 0 0 0 0 0 0 0
0 0 1 1 1 1 1 1 1 1 1 1 1 1 0 0 0 0 0 0 0 0 0 0 0 0 0 0 0 0 0 0 0 0 0 0 0 0 0 0 0 0 0
0 0 0 1 1 1 1 1 1 1 1 1 1 1 1 0 0 0 0 0 0 0 0 0 0 0 0 0 0 0 0 0 0 0 0 0 0 0 0 0 0 0 0
0 0 0 0 1 1 1 1 1 1 1 1 1 1 1 0 0 0 0 0 0 0 0 0 0 0 0 0 0 0 0 0 0 0 0 0 0 0 0 0 0 0 0
0 0 0 0 1 1 1 1 1 1 1 1 1 1 1 0 0 0 0 0 0 0 0 0 0 0 0 0 0 0 0 0 0 0 0 0 0 0 0 0 0 0 0
0 0 0 0 0 1 1 1 1 1 1 1 1 1 1 0 0 0 0 0 0 0 0 0 0 0 0 0 0 0 0 0 0 0 0 0 0 0 0 0 0 0 0
0 0 0 0 0 0 1 1 1 1 1 1 1 1 1 1 0 0 0 0 0 0 0 0 0 0 0 0 0 0 0 0 0 0 0 0 0 0 0 0 0 0 0
0 0 0 0 0 0 0 1 1 1 1 1 1 1 1 1 0 0 0 0 0 0 0 0 0 0 0 0 0 0 0 0 0 0 0 0 0 0 0 0 0 0 0
0 0 0 0 0 0 0 1 1 1 1 1 1 1 1 0 0 0 0 0 0 0 0 0 0 0 0 0 0 0 0 0 0 0 0 0 0 0 0 0 0 0 0
0 0 0 0 1 1 1 1 1 1 1 1 1 1 1 0 0 0 0 0 0 0 0 0 0 0 0 0 0 0 0 0 0 0 0 0 0 0 0 0 0 0 0
0 0 0 0 0 1 1 1 1 1 1 1 1 1 1 0 0 0 0 0 0 0 0 0 0 0 0 0 0 0 0 0 0 0 0 0 0 0 0 0 0 0 0
0 0 0 0 0 0 1 1 1 1 1 1 1 1 1 1 0 0 0 0 0 0 0 0 0 0 0 0 0 0 0 0 0 0 0 0 0 0 0 0 0 0 0
0 0 0 0 0 0 1 1 1 1 1 1 1 1 1 1 1 1 1 1 0 0 0 0 0 0 0 0 0 0 0 0 0 0 0 0 0 0 0 0 0 0 0
0 0 0 0 0 0 1 1 1 1 0 0 0 1 1 1 1 1 1 1 0 0 0 0 0 0 0 0 0 0 0 0 0 0 0 0 0 0 0 0 0 0 0
0 0 0 0 0 0 0 0 0 0 0 0 0 0 0 0 0 1 1 0 0 0 0 0 0 0 0 0 0 0 0 0 0 0 0 0 0 0 0 0 0 0 0
0 0 0 0 0 0 0 0 0 0 0 0 0 0 0 0 0 0 0 0 0 0 0 0 0 0 0 0 0 0 0 0 0 0 0 0 0 0 0 0 0 0 0
0 0 0 0 0 0 0 0 0 0 0 0 0 0 0 0 0 0 0 0 0 0 0 0 0 0 0 0 0 0 0 0 0 0 0 0 0 0 0 0 0 0 0
0 0 0 0 0 0 0 0 0 0 0 0 0 0 0 0 0 0 0 0 0 0 0 0 0 0 0 0 0 0 0 0 0 0 0 0 0 0 0 0 0 0 0
0 0 0 0 0 0 0 0 0 0 0 0 0 0 0 0 0 0 0 0 0 0 0 0 0 0 0 0 0 0 0 0 0 0 0 0 0 0 0 0 0 0 0
0 0 0 0 0 0 0 0 0 0 0 0 0 0 0 0 0 0 0 0 0 0 0 0 0 0 0 0 0 0 0 0 0 0 0 0 0 0 0 0 0 0 0
0 0 0 0 0 0 0 0 0 0 0 0 0 0 0 0 0 0 0 0 0 0 0 0 0 0 0 0 0 0 0 0 0 0 0 0 0 0 0 0 0 0 0
0 0 0 0 0 0 0 0 0 0 0 0 0 0 0 0 0 0 0 0 0 0 0 0 0 0 0 0 0 0 0 0 0 0 0 0 0 0 0 0 0 0 0
0 0 0 0 0 0 0 0 0 0 0 0 0 0 0 0 0 0 0 0 0 0 0 0 0 0 0 0 0 0 0 0 0 0 0 0 0 0 0 0 0 0 0
0 0 0 0 0 0 0 0 0 0 0 0 0 0 0 0 0 0 0 0 0 0 0 0 0 0 0 0 0 0 0 0 0 0 0 0 0 0 0 0 0 0 0
0 0 0 0 0 0 0 0 0 0 0 0 0 0 0 0 0 0 0 0 0 0 0 0 0 0 0 0 0 0 0 0 0 0 0 0 0 0 0 0 0 0 0
0 0 0 0 0 0 0 0 0 0 0 0 0 0 0 0 0 0 0 0 0 0 0 0 0 0 0 0 0 0 0 0 0 0 0 0 0 0 0 0 0 0 0
Wind_Speed
6 7 7 7 8 8 8 7 7 6 4 3 3 3 2 2 2 1 1 1 1 2 2 2 1 2 2 2 2 3 3 3 2 2 2 2 2 1 1 2 2 2 2
7 7 8 9 9 9 8 8 7 7 5 4 3 2 1 2 2 1 2 1 1 2 2 2 2 2 2 2 2 3 3 2 2 3 2 2 3 3 2 2 2 2 2
8 8 9 9 9 9 9 7 7 7 5 5 4 3 2 2 2 1 2 1 2 2 2 2 2 2 3 2 2 3 4 3 3 3 3 2 1 1 2 2 1 1 1
8 8 9 10 9 9 8 8 8 7 5 5 4 4 2 1 1 1 1 1 2 2 2 3 3 3 2 2 4 3 3 4 3 3 3 3 1 2 2 2 2 1 2
7 8 8 8 8 8 7 7 7 7 6 5 4 3 2 1 1 1 1 2 2 2 2 3 3 3 3 2 3 2 3 3 3 3 3 3 2 4 3 2 2 2 2
5 6 7 7 7 7 7 7 7 6 6 6 5 4 3 2 1 2 1 2 2 2 3 3 3 3 3 3 3 3 4 3 3 3 3 3 3 4 3 3 3 2 2
5 6 7 7 6 7 7 7 7 7 6 6 5 4 4 4 3 3 2 2 2 2 3 3 3 4 3 4 4 4 4 4 4 4 4 3 3 3 3 3 2 2 2
5 6 6 6 6 6 6 7 7 7 6 6 5 4 4 3 3 3 2 2 2 2 2 4 4 4 4 4 4 4 4 4 5 5 4 4 3 3 3 3 3 3 3
5 5 5 5 5 5 5 6 7 6 6 6 5 5 4 3 2 3 3 2 2 2 2 4 4 4 4 4 4 3 4 4 4 4 5 4 3 3 3 3 4 3 3
5 5 5 4 4 4 4 4 5 6 6 6 5 4 4 4 3 3 3 2 2 2 2 3 4 4 4 4 4 4 4 4 4 3 3 4 3 2 3 3 4 4 4
4 4 4 3 4 4 4 4 3 4 5 5 4 4 4 4 4 3 3 3 2 2 3 3 3 4 4 4 4 4 4 4 4 4 4 4 3 3 3 3 3 3 3
2 3 3 3 3 3 3 3 2 3 3 4 5 5 4 4 4 3 3 3 3 3 3 3 3 3 4 4 4 4 4 4 4 4 4 4 3 3 4 3 3 3 3
2 2 2 2 2 2 2 2 2 2 2 3 4 4 4 4 4 3 3 3 3 3 3 2 3 3 3 4 4 4 4 4 4 4 4 4 4 4 3 3 3 3 3
1 1 1 1 2 2 2 2 2 2 2 2 3 4 4 4 3 3 3 3 3 3 3 2 3 3 3 3 3 3 3 3 3 3 3 3 3 3 3 3 3 3 2
1 1 1 1 2 2 2 2 2 2 2 2 2 2 3 3 3 3 3 3 3 3 3 2 2 2 2 2 2 3 3 3 3 2 2 1 1 2 0 1 2 3 3
1 1 1 1 2 2 2 2 2 2 3 3 2 2 2 3 3 3 3 3 2 2 2 2 2 2 1 1 1 2 2 2 2 2 2 2 4 4 3 2 2 1 3
1 1 1 1 1 2 2 3 3 3 3 3 3 2 2 2 2 3 3 3 2 2 2 2 2 2 2 3 2 1 2 2 2 1 1 1 2 3 3 3 3 0 1
1 1 2 2 2 2 2 2 3 3 3 3 3 2 2 2 2 3 3 3 2 2 2 2 2 2 2 3 3 1 2 2 2 2 2 1 1 1 0 1 2 2 2
2 2 2 2 2 2 2 2 3 3 4 4 3 3 2 2 3 3 3 3 3 2 3 2 2 2 3 4 3 2 3 2 3 2 2 2 2 3 1 2 2 2 2
2 2 2 3 2 2 2 3 3 4 4 3 3 3 3 3 3 3 3 3 3 3 2 2 3 3 3 4 4 3 3 3 3 3 3 2 1 3 1 3 2 2 2
2 2 2 2 2 2 3 3 3 3 3 3 3 3 3 3 3 3 3 3 3 3 3 2 3 3 3 5 5 3 3 2 3 3 2 3 4 3 2 3 2 1 2
2 2 2 2 2 3 3 4 3 3 3 3 3 2 3 3 3 3 4 4 5 5 5 4 4 3 4 4 5 6 4 2 2 2 2 3 6 4 2 2 0 1 3
1 2 2 2 2 3 4 3 2 2 2 2 2 2 3 2 3 4 4 5 5 5 4 4 4 3 3 5 7 7 6 3 2 1 3 4 6 5 4 4 3 4 3
1 2 2 3 2 2 3 3 3 3 2 2 2 2 2 2 3 3 3 3 3 4 4 4 3 3 4 3 4 5 6 6 4 3 5 6 5 4 2 3 4 3 2
2 2 3 3 3 2 3 3 2 2 2 2 2 2 2 2 3 2 1 3 2 2 3 3 3 3 3 3 2 3 2 2 2 2 3 3 3 3 3 3 2 2 3
1 2 2 2 2 2 2 2 2 3 3 2 2 2 3 3 3 3 2 1 1 2 1 1 2 2 3 5 5 4 3 3 3 3 3 3 2 2 2 2 2 2 2
Wind_Direction
190 181 178 177 170 168 168 167 169 162 167 164 177 178 178 188 178 173 156 195 213 202 225 250 195 236 227 239 231 231 207 215 205 213 193 186 200 204 216 224 212 184 191
186 181 178 177 173 170 169 171 173 167 172 160 171 177 183 194 181 167 150 197 211 219 217 236 232 214 214 217 237 241 240 215 202 230 213 198 184 187 198 204 206 205 196
194 183 182 182 176 173 172 171 170 167 171 164 159 154 162 179 168 186 173 200 224 218 248 230 240 224 229 210 226 229 237 230 211 228 241 234 213 176 163 203 213 209 212
198 185 181 179 179 177 173 170 167 165 164 165 159 162 162 159 159 260 196 199 208 224 223 225 225 236 242 225 233 218 238 236 223 202 243 266 283 235 190 194 188 208 221
195 185 181 175 174 173 172 167 166 165 164 166 163 172 161 156 168 222 224 234 203 216 229 224 224 231 243 241 246 228 238 239 243 227 217 224 222 236 229 217 204 210 213
184 176 171 167 170 169 169 165 161 163 166 170 168 172 165 170 181 219 236 230 210 216 222 227 227 234 241 233 236 231 227 244 249 252 235 230 227 230 232 226 222 221 207
177 173 165 164 165 168 169 167 167 167 168 168 171 175 180 188 200 225 223 248 233 225 227 235 231 237 238 234 231 226 238 235 235 241 242 243 249 250 248 243 233 236 225
179 174 164 165 163 165 167 171 173 172 174 175 178 183 194 208 200 212 245 235 252 242 229 235 233 234 236 234 230 229 230 229 229 232 238 245 243 243 240 245 242 237 230
176 167 161 165 160 161 165 174 176 177 180 183 185 190 196 217 217 214 228 235 247 244 223 232 232 234 231 232 229 231 227 231 231 230 221 235 230 238 246 242 246 250 245
164 160 161 162 159 157 160 172 175 183 185 190 196 191 199 209 214 222 221 245 251 255 235 232 225 225 225 227 229 230 221 227 229 233 235 240 235 227 234 241 245 249 256
163 162 158 157 159 156 156 162 171 182 191 195 195 201 205 208 213 217 220 231 242 240 229 232 233 221 220 219 224 236 224 225 224 226 218 225 247 235 232 232 236 236 236
158 155 152 160 168 165 161 164 174 183 195 197 197 202 208 210 215 215 221 226 230 235 227 226 235 231 224 221 223 233 228 226 225 226 222 220 221 225 240 234 234 232 231
146 138 149 164 169 170 167 170 179 185 198 197 199 200 209 211 215 221 226 226 226 234 230 228 236 235 230 224 221 226 228 228 228 224 222 221 221 224 224 231 230 224 215
125 132 174 182 170 173 178 187 182 176 185 193 202 204 207 211 214 216 219 220 223 227 224 224 231 233 227 224 223 217 217 223 223 221 227 231 223 217 210 212 221 226 224
158 193 224 205 191 183 192 197 191 185 192 196 198 210 210 211 214 215 214 215 219 219 216 219 220 223 216 224 231 215 206 208 208 203 210 208 137 58 344 251 211 213 223
229 254 268 235 204 200 207 199 199 200 204 212 209 210 212 211 210 209 208 209 210 215 212 211 202 203 213 71 3 260 197 197 196 188 196 184 167 138 120 61 35 331 238
243 248 278 276 233 215 210 208 203 201 204 210 206 198 210 214 218 210 202 205 203 203 208 206 193 176 136 110 129 256 207 188 180 168 199 227 140 172 174 156 161 180 338
244 248 258 256 243 225 209 207 202 196 197 202 201 204 217 219 214 212 207 207 206 209 207 205 190 168 131 116 130 173 191 169 161 168 177 174 132 93 32 191 186 201 202
239 247 250 240 227 223 209 199 203 204 203 202 200 201 209 217 217 211 208 208 207 207 204 188 176 167 143 129 139 189 188 167 166 171 160 171 174 91 9 205 198 197 185
226 231 229 213 203 204 207 210 211 211 214 210 206 209 210 211 217 214 211 206 206 201 195 176 175 170 158 145 155 209 199 176 174 165 159 133 141 126 224 220 199 198 203
207 211 222 209 198 205 212 221 225 225 226 220 217 209 204 208 208 207 205 202 198 188 186 179 175 176 171 157 164 199 216 190 183 174 177 144 138 153 211 253 235 233 261
203 211 214 211 206 217 228 229 228 233 233 220 217 204 200 206 186 193 198 198 195 188 186 184 186 177 173 164 170 180 207 258 199 195 179 130 145 164 200 228 211 241 250
230 229 218 220 227 232 247 235 229 229 224 211 212 200 193 200 195 198 200 200 202 202 194 189 181 171 168 160 170 181 187 206 213 153 95 122 159 178 190 197 218 231 234
259 245 232 227 233 240 238 238 226 220 210 211 212 194 184 189 185 209 203 203 204 207 200 195 184 171 171 167 171 179 180 186 192 177 144 161 177 200 197 183 198 220 239
275 253 248 245 242 232 220 228 222 210 210 213 214 199 185 183 186 195 222 224 209 226 230 209 194 186 176 157 158 191 186 194 167 175 174 182 174 186 190 197 202 208 207
282 271 263 260 255 238 223 223 219 210 212 208 207 202 194 188 193 184 182 116 215 133 174 261 243 175 135 141 151 161 163 162 161 201 198 199 204 211 207 209 206 212 217